Theta_e
320 320 321 321 321 321 321 321 321 321 321 321 321 321 322 323 322 316 304 314 318 339 334 321 318 315 315 313 315 308 299 297 302 311 313 318 310 314 320 325 324 328 325 326 329
319 320 320 320 320 320 320 320 320 320 321 321 321 320 322 322 313 309 323 335 336 343 313 312 311 313 309 308 309 303 297 300 307 315 314 315 314 315 319 323 323 324 326 327 330
318 319 320 320 319 319 319 319 320 320 321 320 320 321 321 320 313 318 339 337 342 337 311 313 312 311 306 303 303 302 301 304 309 313 318 311 311 318 320 318 323 320 323 325 326
317 318 318 319 318 319 319 319 319 319 320 319 320 321 321 315 303 314 345 339 344 317 307 306 305 303 301 301 302 299 305 306 310 314 316 308 312 317 319 320 328 326 326 326 325
317 317 317 318 318 318 318 318 318 318 318 319 321 321 313 309 306 328 343 340 319 309 305 306 305 304 299 300 301 300 304 306 311 310 308 312 311 310 316 325 329 328 327 326 325
317 317 317 317 317 317 317 317 317 317 318 319 323 321 310 298 317 330 321 314 309 307 307 306 308 306 303 300 298 302 303 304 305 304 305 308 308 311 321 327 326 326 325 326 325
316 316 316 317 317 317 317 317 316 317 318 321 323 319 313 306 317 320 312 308 307 309 310 310 310 307 302 301 302 303 300 303 303 304 304 307 306 306 324 326 324 324 324 325 325
315 315 315 316 316 317 317 316 316 318 320 324 323 316 306 320 314 312 309 309 310 309 311 311 308 305 303 303 303 300 296 294 302 306 308 307 300 311 324 323 322 323 324 324 324
314 314 314 315 316 316 316 315 317 320 323 324 317 314 309 319 311 313 311 309 311 311 310 315 305 302 303 297 294 295 292 294 298 302 304 303 300 308 323 322 320 321 322 322 323
314 313 313 314 315 315 314 314 317 320 323 323 322 308 312 310 315 314 313 312 309 307 305 303 298 296 294 293 289 291 291 292 294 301 299 298 302 306 321 320 319 319 320 320 320
314 313 313 313 314 314 311 310 305 306 311 311 313 310 314 320 319 313 315 312 309 303 295 297 294 291 295 297 298 296 294 294 297 302 298 296 297 301 312 315 315 320 319 319 319
313 313 313 313 313 313 307 310 311 310 303 312 315 315 318 319 311 313 314 306 303 297 297 294 292 297 298 298 298 297 295 295 298 301 297 298 298 300 301 302 305 307 319 320 319
312 312 312 312 311 311 311 314 318 309 300 306 310 309 309 312 311 310 311 306 300 296 295 292 297 303 301 298 299 295 295 296 296 298 298 297 296 298 304 302 303 306 310 319 321
311 311 312 311 308 306 310 316 313 311 296 303 307 310 309 309 305 316 313 308 301 297 296 295 300 301 299 299 299 293 300 301 300 295 290 297 289 295 299 302 303 308 316 315 320
310 311 311 310 302 306 313 314 317 309 288 309 308 312 308 306 306 307 313 308 302 302 300 299 302 298 299 300 302 298 300 300 301 294 291 294 290 293 298 299 305 316 321 323 324
310 310 310 308 303 308 312 312 311 297 287 305 306 304 302 303 305 308 309 310 308 303 302 303 307 305 302 304 303 304 300 297 294 292 288 292 291 291 299 303 311 318 321 324 326
310 310 308 309 303 310 310 310 298 291 305 304 302 304 301 301 303 306 305 301 298 294 295 301 302 305 306 299 301 298 292 287 288 287 287 295 296 300 309 314 315 317 319 322 325
307 307 307 309 307 309 310 303 292 302 304 308 306 304 299 302 302 305 303 299 302 300 296 295 294 303 306 301 297 295 294 288 284 286 290 298 296 304 313 315 316 316 317 317 318
306 304 305 311 311 310 305 294 296 302 307 305 305 300 299 302 302 302 301 301 303 302 297 296 298 308 307 306 303 297 293 297 291 290 290 295 304 312 313 313 314 313 314 313 314
300 302 307 316 315 311 302 297 301 308 309 306 299 303 298 302 301 298 299 304 304 307 305 302 296 305 308 306 304 299 302 293 291 287 286 292 296 301 307 309 311 310 309 310 312
301 301 309 317 316 306 297 299 305 311 311 305 302 301 302 303 303 299 299 306 310 308 306 302 298 300 304 301 299 299 295 297 294 292 288 287 297 308 307 310 310 311 311 309 309
297 294 311 314 302 301 298 305 308 310 313 308 307 305 303 306 304 304 303 305 311 312 305 306 298 297 299 305 307 301 298 296 291 291 293 291 294 312 310 310 310 309 307 307 311
293 297 309 309 295 295 301 305 307 309 309 307 307 308 308 303 299 306 307 311 312 310 307 305 297 292 294 296 303 301 303 302 297 294 292 290 294 313 312 308 307 305 305 307 308
295 295 303 303 301 298 299 303 304 311 308 308 306 307 304 303 303 302 304 310 310 308 316 310 299 294 290 294 299 297 301 302 297 292 294 294 302 300 301 300 301 302 303 303 304
296 298 301 297 300 299 299 303 302 302 307 306 302 304 302 297 302 302 307 305 308 311 309 303 297 299 300 303 302 300 300 299 296 297 294 296 298 298 297 298 300 302 303 303 303
296 297 299 298 299 298 298 298 303 304 303 303 303 305 304 300 301 299 304 302 302 304 304 303 297 297 296 302 300 298 299 299 298 297 296 298 295 298 299 301 301 301 303 302 303
300 302 298 297 298 296 296 299 303 306 307 307 306 304 302 304 305 303 303 304 301 302 302 300 297 294 291 299 297 292 297 298 298 299 297 293 295 298 298 299 299 300 302 304 305
Wind_Speed
21 21 20 20 20 19 20 20 20 19 18 18 16 13 11 9 11 3 6 12 8 12 3 8 4 5 3 3 5 3 3 5 7 7 8 4 3 2 4 10 1 5 8 15 20
21 22 21 21 20 21 21 20 21 19 17 17 14 12 9 6 2 7 12 10 12 14 6 8 6 5 2 5 4 6 5 10 11 7 8 5 5 9 6 7 6 8 15 14 22
22 21 21 21 22 21 21 21 20 20 17 16 13 10 7 2 3 8 7 14 10 14 6 6 5 4 3 1 4 6 8 4 14 16 11 6 6 4 14 1 12 21 22 17 16
23 23 23 23 23 22 21 21 21 20 18 15 11 7 4 2 2 3 4 14 9 7 4 5 4 4 5 6 4 5 7 7 16 17 8 8 5 9 8 10 16 23 24 20 16
23 24 24 23 23 22 22 21 20 19 17 14 10 3 2 1 10 5 10 10 7 6 6 6 6 7 5 4 4 6 8 6 13 10 7 7 6 5 7 16 20 17 18 20 15
22 23 23 24 23 23 22 21 20 17 15 11 3 7 2 3 3 10 10 7 6 6 6 7 7 7 5 2 3 5 8 10 5 3 3 5 6 7 3 21 19 20 19 19 19
23 23 24 24 24 24 23 22 21 18 13 8 8 4 1 13 6 8 11 8 6 7 6 5 4 3 3 6 2 5 6 9 3 2 4 3 8 7 16 19 21 20 19 20 20
23 24 24 25 25 25 25 25 24 17 7 4 9 1 8 5 9 7 5 4 5 6 3 6 7 8 5 3 9 6 4 5 9 10 7 9 10 6 20 22 21 20 18 18 20
24 25 25 26 26 26 26 27 22 7 5 9 3 2 9 5 7 8 7 6 5 5 7 10 3 2 7 4 7 7 2 6 11 5 6 4 11 6 21 23 21 18 18 18 17
25 26 26 27 26 27 28 23 8 3 4 6 4 3 6 8 5 8 6 6 5 3 4 3 6 4 5 6 4 5 3 4 5 10 1 5 13 4 26 19 20 22 18 18 18
26 26 27 28 27 24 17 5 6 3 2 8 5 5 6 5 6 5 9 5 4 5 3 2 5 6 12 10 9 4 0 4 7 7 3 5 3 2 11 9 10 15 15 19 20
26 27 28 30 29 27 2 2 6 6 9 10 16 12 16 6 3 10 6 5 4 5 2 6 8 13 4 3 5 7 6 6 8 7 2 6 5 6 4 7 10 13 21 21 14
26 26 28 32 33 3 4 6 8 1 2 9 7 6 7 9 11 10 11 6 4 4 6 7 9 7 7 6 6 5 7 6 8 5 4 2 8 6 9 5 5 8 6 14 20
25 26 25 33 4 6 7 6 7 3 5 9 5 7 4 5 2 9 9 7 4 10 5 7 9 7 6 7 9 3 4 2 5 2 3 4 6 6 7 10 10 5 9 3 20
26 24 22 15 6 4 7 12 12 6 4 4 5 4 8 11 4 5 7 3 9 5 3 10 5 7 6 8 4 8 2 3 1 3 4 7 4 10 6 8 6 9 16 16 12
28 25 22 0 2 11 9 10 4 6 6 4 6 6 6 3 3 3 8 0 3 4 4 10 5 5 7 4 5 5 5 8 5 3 5 6 6 6 8 6 9 15 16 20 21
30 31 12 3 7 2 6 5 5 3 7 2 4 6 7 5 4 5 9 7 5 2 4 7 6 5 4 2 6 7 8 5 6 5 7 4 8 4 7 13 11 19 17 17 17
33 30 5 7 5 3 4 6 2 5 3 6 5 6 8 6 6 9 8 6 6 5 2 2 9 4 3 7 8 6 10 8 5 3 6 4 6 3 5 15 17 17 15 17 18
28 4 4 6 9 2 6 3 7 4 4 9 4 6 4 7 6 6 9 12 10 9 8 4 6 9 13 5 9 2 3 7 7 1 3 2 4 5 4 14 17 17 17 15 17
6 5 5 2 9 5 6 5 5 4 10 3 5 4 3 4 3 4 9 5 7 11 8 6 1 5 5 7 5 4 5 3 3 4 3 4 3 7 5 12 14 14 13 9 11
3 5 6 8 5 6 3 7 6 10 9 3 3 3 3 2 2 3 8 2 1 4 8 5 4 6 5 3 0 6 5 6 6 5 6 2 5 3 5 8 13 11 9 8 8
5 3 3 5 3 1 3 5 5 15 15 3 1 0 3 3 5 4 4 4 8 2 4 1 6 3 4 2 3 3 2 5 7 3 0 5 4 5 6 7 9 13 13 12 14
4 5 7 6 2 3 6 8 6 10 8 3 4 4 4 2 3 2 3 6 9 5 4 0 3 3 9 8 8 5 5 4 5 4 4 6 4 2 3 10 7 9 10 11 11
3 5 6 5 2 1 5 6 7 9 2 3 2 4 6 4 4 1 2 5 5 5 4 7 4 6 7 4 3 3 5 4 5 4 4 4 10 4 4 8 8 10 9 8 7
1 4 2 5 4 5 3 4 5 7 7 3 4 3 2 1 4 5 6 4 6 4 5 6 4 2 1 1 1 1 5 2 3 4 4 5 8 7 5 7 7 7 7 9 8
1 3 5 4 5 5 4 3 3 4 3 3 7 9 12 6 4 0 1 3 2 4 3 3 2 2 6 6 7 5 7 6 5 2 3 14 10 5 4 8 8 7 7 7 6
4 4 4 5 6 3 3 7 9 7 6 7 7 7 9 3 3 4 3 1 1 2 2 4 5 3 1 5 5 5 6 5 7 4 3 7 8 5 8 10 6 7 8 8 8
Wind_Direction
348 344 343 341 336 333 333 331 329 328 329 326 322 319 315 317 304 162 234 220 185 165 138 128 177 197 119 226 176 115 30 253 244 215 232 260 220 10 16 117 285 173 138 147 122
346 344 340 337 334 334 332 330 327 325 327 324 321 323 314 327 287 244 236 217 205 150 142 145 169 164 212 225 186 137 161 236 216 203 245 221 181 149 91 105 41 77 113 139 127
345 342 338 336 335 331 329 326 325 326 327 325 326 321 306 310 312 248 197 209 175 169 148 159 114 151 214 320 220 194 216 223 267 247 221 260 161 117 123 273 162 151 152 155 152
342 340 338 333 331 329 326 322 322 321 325 323 325 305 287 233 237 307 127 167 158 155 111 127 131 169 228 209 205 251 242 221 256 260 192 169 178 138 162 187 156 158 158 156 170
339 337 334 328 327 325 321 319 315 318 320 321 312 235 209 55 250 139 110 119 122 136 165 157 166 184 225 207 334 212 271 263 246 253 280 167 195 149 178 140 151 155 164 163 173
335 333 330 328 324 321 319 316 313 314 315 313 271 164 196 268 196 148 129 133 161 159 186 164 205 202 278 274 157 274 286 286 238 227 217 190 242 107 159 143 150 161 176 174 175
334 331 328 326 322 320 319 317 310 311 307 293 172 210 72 235 152 149 142 173 186 184 178 225 180 163 284 309 226 267 336 329 314 351 293 100 313 170 158 151 157 176 182 181 181
333 330 327 324 322 321 320 314 309 305 288 227 171 192 245 252 130 140 197 198 197 234 260 261 236 198 200 285 3 349 52 8 298 355 300 90 279 109 158 154 176 185 189 190 187
332 329 326 324 323 321 318 313 309 289 162 146 161 97 270 97 155 206 171 194 189 229 256 261 52 118 22 60 8 6 284 324 320 348 275 135 263 223 176 173 178 181 190 191 199
330 328 326 323 324 322 323 310 278 111 180 198 261 346 274 214 182 192 216 184 207 179 8 59 43 54 34 68 212 258 323 296 283 292 277 318 239 249 180 174 177 196 186 193 199
330 328 326 323 323 324 337 2 15 3 165 209 192 246 282 257 129 179 209 152 214 84 161 315 79 200 212 190 214 220 314 282 269 264 268 300 298 249 165 181 179 200 197 194 205
330 329 327 323 322 323 133 19 236 208 306 236 250 245 256 276 225 181 116 150 126 200 140 15 230 227 232 263 246 240 253 265 278 273 61 329 307 293 249 204 205 180 198 201 189
330 329 329 323 320 318 259 247 289 336 335 289 217 209 218 156 195 198 141 174 172 198 190 172 238 196 186 255 253 226 185 223 230 324 327 329 328 331 302 297 272 51 157 181 184
329 328 332 330 9 328 288 298 335 102 45 276 204 246 168 142 278 189 176 141 200 210 194 221 265 224 228 227 177 184 214 298 333 33 240 42 271 294 294 305 56 39 54 119 186
326 327 330 324 297 309 271 340 329 56 11 167 172 184 153 150 203 188 164 117 213 225 125 252 298 223 227 203 153 228 202 244 205 62 64 322 42 270 348 23 95 80 75 66 74
323 323 328 312 229 243 311 310 47 50 261 225 163 152 125 195 264 59 158 62 210 195 216 248 240 232 210 178 175 141 64 39 43 58 10 257 132 334 340 138 121 84 76 79 84
322 316 311 229 230 0 314 38 49 156 300 194 191 143 168 170 227 167 171 210 174 93 320 325 296 279 220 103 17 78 59 4 358 15 224 67 67 299 352 66 79 93 81 79 82
323 313 227 209 235 314 29 55 203 259 273 299 160 148 179 187 237 171 150 200 260 123 90 227 323 190 204 165 178 182 144 151 188 201 257 5 137 144 97 82 84 78 83 81 81
322 320 273 252 197 138 76 101 213 237 335 325 2 145 251 216 192 153 182 201 202 169 165 190 267 283 158 145 126 194 179 181 106 319 73 182 61 50 106 88 83 86 86 81 86
325 332 265 266 142 78 77 233 260 287 319 339 53 49 75 348 22 174 192 231 196 195 154 219 277 334 29 62 22 136 173 68 8 126 181 276 181 187 160 111 100 97 90 89 93
358 354 264 144 84 55 168 237 284 278 295 353 28 343 33 15 233 277 211 20 137 129 135 154 109 295 40 80 202 351 357 60 115 115 157 154 270 214 150 125 111 108 102 94 69
352 336 274 45 49 168 195 215 292 295 313 289 111 296 20 9 352 34 22 30 327 134 106 23 132 137 206 261 244 165 9 117 113 240 75 138 289 356 146 120 93 87 90 79 81
337 273 308 111 181 270 290 286 277 280 253 94 30 36 29 323 69 36 29 357 27 61 129 254 26 51 342 357 4 48 16 49 101 84 196 137 193 27 67 80 77 100 79 87 82
345 339 313 34 128 56 347 290 311 320 101 112 111 51 38 354 4 328 117 23 26 52 69 89 82 140 182 180 209 334 331 63 97 103 209 201 133 43 76 91 72 80 90 93 89
181 268 7 324 331 328 276 273 316 350 338 78 36 24 262 337 41 4 11 27 11 356 35 82 95 60 99 154 343 269 296 346 141 182 153 150 127 182 173 106 105 105 80 63 49
40 21 344 290 298 340 311 285 291 318 358 334 92 65 63 81 40 288 172 39 52 325 65 14 172 101 355 20 22 324 297 295 258 151 128 112 108 182 134 109 85 72 71 61 43
313 328 109 285 327 357 43 314 318 295 28 40 140 96 60 352 267 244 296 250 266 172 132 102 117 78 245 351 21 329 275 227 78 8 179 154 159 173 91 90 78 62 48 39 33